Theta_e
291 287 284 287 288 288 287 285 285 288 292 289 289 289 292 294 294 294 295 295 296 297 304 308 310 311 314 316 320 325 330 337 339 339 340 339 339 340 341 341 341 340 343 345
288 285 290 291 291 289 288 285 285 289 292 289 289 288 291 293 293 294 295 295 296 297 298 301 307 311 314 316 317 321 325 329 338 338 330 331 333 336 336 337 339 340 340 341
285 289 294 292 290 289 287 285 286 287 290 290 287 285 289 292 293 295 296 296 296 297 298 301 304 309 311 314 316 319 323 324 325 325 324 323 324 324 328 329 334 337 338 339
288 291 291 289 289 289 284 291 290 289 286 281 287 281 285 289 290 293 295 294 295 296 297 300 303 307 311 314 316 316 317 320 322 322 321 321 319 318 321 323 327 331 334 333
289 288 288 288 290 291 288 291 289 289 284 281 283 279 283 287 288 290 292 294 295 297 297 298 300 305 309 313 314 316 316 316 317 319 320 319 317 317 319 321 323 324 328 331
290 293 292 291 293 293 293 289 285 283 281 276 282 281 281 285 289 290 293 295 296 297 299 299 300 302 307 310 312 314 315 314 315 316 315 315 315 315 316 317 318 320 322 324
289 290 292 294 289 292 288 283 277 276 276 279 285 280 285 288 292 292 293 295 296 298 298 300 301 301 305 308 311 314 314 313 315 316 315 315 314 314 315 315 316 318 320 320
282 283 290 294 290 289 285 284 279 275 274 280 285 278 284 291 294 296 296 296 297 297 298 300 303 302 301 308 311 315 314 313 315 315 315 316 315 314 314 315 316 317 317 319
282 284 294 295 294 292 286 282 286 281 281 278 281 285 291 294 294 295 296 296 296 297 298 301 302 304 304 307 310 314 314 313 314 314 314 315 314 312 314 315 316 317 317 320
289 283 292 295 295 295 292 294 285 284 278 274 279 281 283 289 291 295 295 295 296 297 299 299 300 303 303 304 307 311 312 314 314 315 316 313 313 313 314 314 315 316 317 319
292 287 288 291 289 289 289 288 289 288 286 280 279 280 288 289 291 293 294 296 297 297 298 299 300 303 303 304 307 307 308 309 311 311 312 312 312 314 314 314 315 316 317 317
293 290 285 288 292 295 294 290 291 284 282 284 279 282 293 291 293 295 295 297 298 300 300 300 300 303 305 306 304 305 306 306 308 310 310 310 311 312 313 314 316 316 316 317
293 287 283 284 288 292 291 292 291 289 286 281 279 282 293 294 294 296 295 297 299 302 301 302 301 301 302 304 306 306 305 305 306 308 309 310 310 310 311 313 315 316 316 317
296 288 285 282 285 289 287 290 291 288 283 280 282 285 289 292 294 295 295 296 299 300 302 301 300 300 303 305 305 306 307 307 306 306 307 308 309 310 311 313 314 315 315 316
293 284 287 289 290 289 288 288 289 286 287 283 284 284 288 290 292 293 296 297 300 300 301 301 301 301 302 302 305 307 307 307 307 307 306 306 308 309 310 311 312 313 313 313
290 282 286 285 288 288 287 288 287 288 288 286 287 286 290 292 295 297 295 297 297 298 299 300 301 301 301 301 302 303 303 305 306 305 305 306 307 307 307 309 311 311 311 312
285 283 282 279 285 284 280 284 286 286 288 287 283 287 290 292 294 295 295 297 296 297 297 298 298 298 298 298 300 299 301 303 303 304 305 307 308 307 308 309 309 309 310 311
283 282 282 278 281 274 283 293 292 289 291 293 292 293 294 295 294 294 296 295 295 295 295 295 296 296 297 296 297 298 299 299 300 300 303 305 306 307 308 308 308 309 309 309
288 285 279 277 276 281 285 291 290 288 287 293 293 294 294 293 292 292 297 296 295 295 295 295 297 296 296 297 297 297 297 297 297 297 299 301 304 304 306 306 307 308 308 308
289 290 284 279 275 275 281 293 295 294 283 293 293 291 290 290 285 289 293 295 295 296 296 295 296 297 296 296 297 296 296 295 295 296 298 300 301 302 303 304 305 306 305 307
284 285 278 281 280 283 290 293 295 281 280 289 290 289 288 288 290 293 295 294 295 296 295 297 296 296 297 297 297 295 295 294 296 297 298 298 299 300 301 302 304 304 304 305
282 282 276 281 279 275 290 290 283 285 288 289 290 291 291 292 293 294 295 294 294 293 296 296 294 294 295 296 297 294 294 296 297 297 296 296 297 298 299 300 301 303 304 303
282 286 280 282 280 288 289 289 291 290 290 290 292 294 294 293 293 292 292 292 294 295 293 294 293 293 294 294 293 291 294 297 296 295 295 296 297 298 299 299 299 299 300 300
287 289 285 285 286 287 289 290 291 291 293 294 294 294 293 291 291 291 293 293 294 293 291 293 293 291 290 292 294 295 295 296 294 293 294 294 294 295 296 297 297 297 298 299
286 286 283 283 285 287 289 290 291 292 294 294 294 293 293 293 292 290 289 290 291 290 291 292 290 289 290 292 293 294 294 294 293 294 295 295 296 296 296 297 297 298 299 299
286 284 280 280 287 286 287 290 292 291 292 294 293 293 294 294 290 290 289 290 291 290 289 289 289 289 290 291 292 293 294 294 294 294 294 295 296 297 298 298 298 297 297 297
Wind_Speed
3 4 6 9 7 5 2 4 5 7 11 3 8 6 9 9 8 10 8 6 7 10 12 7 8 8 7 6 5 7 10 11 10 7 9 8 10 9 9 7 6 3 10 11
6 5 9 5 4 5 5 4 8 9 13 7 8 8 8 7 7 6 7 10 7 7 9 8 7 6 7 11 9 7 8 8 11 8 3 4 4 4 3 3 5 9 9 7
6 8 5 6 3 4 4 5 5 9 4 3 2 4 6 6 4 7 7 7 7 8 10 10 6 8 7 9 14 13 14 12 6 6 6 4 3 4 1 2 2 4 7 7
6 6 6 5 5 6 4 8 7 5 1 5 4 11 4 5 7 6 9 9 10 10 7 8 11 7 10 14 6 8 7 7 7 8 7 8 6 5 4 4 2 5 4 5
9 3 3 4 10 6 10 5 6 5 5 2 3 1 9 3 5 10 9 10 10 10 8 9 10 11 10 7 9 7 6 6 6 7 7 6 5 4 3 3 5 3 2 5
9 2 6 8 2 7 3 1 5 4 3 3 8 6 5 6 9 6 5 9 10 9 9 9 9 9 12 5 7 8 9 8 6 7 7 8 8 7 5 4 4 3 3 3
3 10 6 4 5 5 4 5 4 5 3 11 8 6 11 7 9 8 10 12 10 9 8 9 9 8 10 10 11 11 12 11 9 8 8 8 8 7 7 5 4 4 4 3
5 11 7 4 9 13 7 9 7 7 5 8 3 7 7 8 6 6 5 9 10 8 8 9 9 9 9 11 12 15 15 13 13 10 8 7 7 5 5 5 4 4 3 3
4 6 5 5 6 10 3 4 4 2 2 3 5 7 6 5 4 5 7 8 7 7 9 9 7 6 5 6 8 11 10 7 9 10 9 8 8 8 7 8 5 4 4 3
4 4 5 6 2 1 4 6 2 1 4 7 4 4 6 6 4 5 8 8 7 8 8 9 8 2 3 3 1 1 3 8 9 10 10 7 7 8 7 5 6 6 5 5
1 3 7 1 4 5 1 2 4 3 2 5 8 6 6 3 3 6 8 7 7 8 8 6 9 3 4 3 5 2 0 2 6 1 5 3 8 8 6 6 6 7 5 6
5 4 5 11 4 3 1 3 4 5 4 5 3 11 3 4 4 6 9 9 7 7 7 7 6 9 5 5 5 3 5 5 6 4 4 6 6 3 4 8 9 8 9 6
4 1 2 6 1 1 3 2 4 4 3 7 5 8 2 7 7 10 9 8 7 9 12 10 9 7 7 10 5 6 6 7 6 4 10 10 9 7 10 9 9 8 9 9
4 2 5 6 3 2 6 5 7 7 4 4 8 17 13 15 12 14 10 8 7 6 7 7 7 8 8 7 5 3 6 5 7 4 5 8 9 11 11 12 10 9 11 10
7 6 8 13 16 13 13 13 10 8 9 8 12 10 14 6 9 7 5 6 7 6 6 6 7 7 6 6 6 5 6 5 6 6 4 7 5 6 7 8 10 10 8 11
3 5 3 7 11 10 13 10 10 13 13 10 11 15 2 5 6 11 8 7 5 7 10 8 8 7 7 7 6 6 5 6 6 6 6 5 5 6 8 9 10 10 12 12
4 4 2 5 1 4 6 7 7 4 3 3 4 5 3 5 7 9 11 9 4 5 8 9 6 7 8 6 5 6 6 6 6 5 6 7 6 7 7 6 7 9 11 11
6 5 4 3 3 3 2 2 4 2 2 5 6 6 4 6 7 12 11 8 5 7 12 14 12 10 10 7 8 7 7 6 7 9 8 8 7 7 7 7 8 7 6 10
6 4 2 1 3 5 1 0 2 2 4 0 3 7 9 7 11 11 6 1 4 11 10 14 14 11 13 14 12 11 13 12 11 11 11 10 9 10 8 8 9 7 6 8
4 2 4 2 2 4 5 1 1 3 5 9 8 9 11 8 10 13 3 10 14 14 12 16 16 14 16 15 11 12 14 13 14 13 14 13 12 11 11 11 11 7 7 11
2 1 4 3 3 5 1 4 3 1 4 4 3 8 10 11 14 18 19 18 14 16 18 16 14 16 18 15 13 15 15 17 16 14 14 15 15 14 13 11 8 9 10 9
3 3 3 2 1 7 4 4 2 4 3 5 8 10 16 17 17 18 18 18 20 22 17 17 18 18 19 17 15 15 18 18 16 14 16 17 17 13 13 14 10 11 11 12
2 4 4 7 6 2 2 6 6 3 6 7 10 14 16 15 16 18 19 20 20 17 16 17 18 22 16 15 19 23 21 15 14 19 21 15 14 12 11 12 13 11 13 12
2 1 2 2 0 3 6 3 3 3 8 12 13 14 13 15 18 20 22 19 15 14 20 17 17 17 21 19 15 15 17 17 18 18 18 16 15 15 15 12 13 13 13 13
4 2 1 4 5 7 1 3 5 7 11 14 14 15 17 18 15 17 22 22 18 18 18 17 15 18 20 17 18 15 18 17 17 17 16 16 14 15 14 14 14 14 16 16
3 4 4 4 4 4 8 7 8 11 14 15 15 15 14 13 14 19 22 21 19 19 14 17 16 19 18 19 18 17 17 16 17 16 13 13 12 12 12 12 13 23 27 26
Wind_Direction
18 85 206 217 197 177 189 206 242 255 260 228 252 252 264 284 317 307 297 286 270 268 274 278 232 225 217 262 218 195 184 191 167 166 168 173 185 182 192 205 218 187 181 171
27 236 229 194 184 205 213 246 260 276 261 165 259 257 252 243 245 226 278 302 296 293 305 301 255 210 224 220 228 215 201 186 190 177 163 147 153 176 174 196 219 198 191 168
168 235 116 174 232 199 208 188 237 225 308 265 329 293 250 256 267 287 272 231 261 267 292 299 275 250 213 229 219 214 205 187 179 153 125 92 81 52 66 231 197 193 195 206
225 257 202 183 224 164 250 219 241 252 155 240 124 281 238 240 255 269 278 294 285 287 282 279 285 261 217 227 207 220 191 192 170 171 158 160 161 157 181 165 171 168 182 194
242 197 160 186 222 143 243 218 231 252 230 57 284 301 276 230 274 268 253 262 268 267 258 275 270 268 267 213 204 187 172 181 185 178 188 162 156 146 135 135 153 152 169 199
241 258 182 212 256 171 224 181 45 52 87 237 230 208 190 221 238 275 267 256 262 275 280 272 268 266 265 202 180 173 174 192 198 179 186 172 165 162 147 161 160 165 166 170
301 250 244 165 292 283 126 80 315 317 307 262 222 238 251 234 247 225 269 302 287 269 273 275 274 270 250 216 198 184 179 191 186 187 181 174 171 174 170 182 174 173 169 182
196 280 177 189 192 226 184 159 177 242 240 272 29 242 248 217 253 318 316 277 294 303 276 273 282 265 251 229 211 195 187 188 182 180 183 193 177 175 166 175 180 184 190 201
193 266 256 222 194 149 194 178 200 170 42 345 224 295 305 279 12 357 333 357 324 321 311 295 292 319 284 255 227 210 194 180 179 188 186 188 178 169 184 188 174 175 196 213
253 280 253 280 141 11 167 150 120 19 293 264 239 264 243 267 255 315 341 336 337 330 327 318 313 304 100 74 351 219 166 201 196 202 218 195 178 189 180 160 191 193 209 208
198 65 291 225 222 218 164 177 66 96 164 260 291 251 218 248 233 285 299 281 293 300 296 297 300 328 72 334 148 135 174 272 274 35 319 223 210 190 172 190 195 204 195 204
347 158 224 258 324 304 85 130 148 161 212 232 238 262 310 281 250 264 295 300 300 291 291 298 292 304 356 110 333 270 196 212 234 245 234 244 245 204 209 205 208 204 212 200
59 222 283 307 204 62 82 110 110 95 121 215 234 274 321 302 303 297 297 303 324 323 326 332 320 318 331 3 11 355 348 288 259 239 222 217 210 206 202 215 224 202 212 216
112 290 216 241 265 218 271 223 205 172 206 246 231 282 294 291 304 295 280 306 320 343 5 22 5 356 7 357 0 4 304 276 299 285 257 234 219 213 214 213 207 221 209 211
138 230 224 237 249 262 256 253 245 207 230 232 277 265 280 323 313 317 322 320 324 343 351 353 7 328 342 336 356 344 330 324 298 311 310 266 268 243 221 200 209 208 212 218
172 239 220 263 255 258 256 253 255 254 255 248 263 274 101 285 326 339 306 311 326 329 334 346 6 336 336 333 327 324 314 321 315 318 300 293 278 256 227 224 217 211 211 213
176 165 145 257 338 319 273 238 222 232 208 178 223 237 289 305 311 292 305 309 302 332 333 326 300 287 287 280 292 292 287 300 315 305 300 291 288 285 272 247 229 227 217 208
162 153 165 251 21 237 254 43 85 51 239 236 249 268 277 293 286 291 284 270 311 321 325 318 300 296 300 291 298 287 297 296 292 298 298 291 285 282 285 273 257 236 212 215
155 138 104 205 212 290 98 100 63 355 279 237 343 340 329 321 311 285 241 244 290 308 301 305 294 295 300 304 305 306 311 308 303 296 285 275 263 267 266 266 266 257 246 238
107 67 163 151 189 248 220 156 103 278 265 31 355 324 305 319 291 288 294 328 305 296 290 297 284 288 288 284 281 285 288 286 287 288 287 283 273 262 260 258 251 245 235 250
83 103 181 191 227 284 11 329 320 316 261 322 280 284 297 290 285 298 307 301 293 292 291 290 273 284 286 281 274 270 273 275 279 278 282 280 274 268 263 259 236 231 231 233
176 175 207 152 242 280 12 352 299 233 252 264 288 286 292 286 284 289 292 286 293 292 293 297 294 291 289 283 281 277 277 282 272 270 275 275 268 262 263 255 247 236 234 231
209 193 188 178 221 241 196 225 263 228 283 288 282 297 292 296 295 290 291 288 285 283 292 291 284 284 285 288 283 277 276 273 284 281 276 272 276 269 260 256 254 251 245 241
312 41 218 357 231 232 272 269 224 269 284 295 297 298 299 292 294 292 298 295 301 301 294 292 290 288 289 282 274 281 284 280 277 272 270 267 260 259 256 251 247 245 241 239
218 31 178 274 291 306 46 255 270 296 300 308 302 298 294 291 302 319 301 293 291 296 292 298 283 285 278 284 277 278 280 274 270 266 264 261 257 256 255 247 242 239 237 233
192 186 145 237 239 206 277 282 305 300 294 295 295 294 293 285 299 316 304 296 291 293 295 293 285 285 282 282 279 279 276 274 272 270 266 260 257 253 249 249 250 235 235 231